Dewpoint
64 64 63 62 62 61 59 59 58 54 55 57 58 60 63 62 62 64 66 66 65 65 64 64 64 64 65 66 66 66 66 67 67 66 66 66 64 62
63 64 64 62 62 62 61 60 58 58 55 57 58 60 60 61 62 64 64 64 65 64 64 64 64 64 65 65 65 65 66 66 66 66 66 66 65 65
65 63 63 64 61 61 61 60 59 57 57 58 59 60 61 62 62 62 61 63 62 63 63 63 63 64 64 64 64 64 64 65 65 65 66 66 66 66
65 64 63 62 63 63 61 63 61 61 59 60 59 60 61 62 62 63 62 60 62 61 62 62 62 62 61 62 62 62 61 61 61 62 63 64 65 65
65 65 64 64 63 62 63 62 62 61 63 60 60 60 61 61 62 62 62 62 60 62 61 60 60 61 60 59 57 57 56 56 57 58 59 60 61 62
66 65 64 64 63 63 63 64 64 64 63 62 61 62 60 61 61 60 59 60 59 59 61 60 60 60 59 58 57 58 57 55 55 55 55 56 57 59
66 66 65 65 65 63 62 64 65 63 64 63 62 61 60 61 61 60 58 59 60 60 60 60 59 58 58 57 57 59 57 56 55 55 54 54 55 56
65 66 66 65 65 63 62 62 64 63 64 63 62 62 61 62 61 60 59 58 57 60 59 58 58 58 59 57 57 58 58 57 57 56 55 54 53 54
66 66 65 66 65 66 63 62 62 62 63 64 63 60 61 64 62 59 58 59 58 59 59 57 59 57 58 54 57 57 57 57 56 55 54 53 52 52
67 66 66 66 66 65 65 65 65 65 64 64 65 63 63 64 62 62 61 60 60 59 59 57 57 55 56 56 57 57 56 56 55 54 53 51 50 50
67 67 67 66 62 61 66 65 65 64 61 61 60 60 60 60 62 61 59 58 57 55 56 55 55 54 54 53 54 55 54 53 52 52 52 51 50 49
67 67 62 65 59 58 66 66 65 63 63 63 62 60 59 57 59 61 58 54 54 52 55 53 53 53 46 51 50 50 50 50 50 50 51 51 50 53
67 66 66 59 56 54 59 66 63 63 62 62 60 56 54 54 53 55 58 55 54 53 55 54 53 51 49 48 48 49 49 49 51 53 51 50 49 51
66 66 65 56 53 53 56 58 54 58 60 57 55 52 51 53 51 52 54 55 56 56 56 57 51 51 51 45 42 46 48 49 52 52 52 51 50 50
65 63 56 50 50 52 55 54 55 59 56 54 52 51 52 54 53 51 51 51 50 50 48 52 52 52 51 50 44 43 45 47 49 53 51 50 49 49
58 59 57 57 56 57 57 56 59 57 55 53 51 52 53 52 49 48 47 45 43 43 48 47 48 49 43 49 49 43 44 48 50 50 49 48 48 47
58 59 58 58 57 57 57 57 56 54 52 52 52 52 52 51 48 46 44 43 42 41 39 42 47 48 48 48 44 42 43 48 48 48 47 44 45 45
60 60 59 58 57 56 55 55 54 53 52 52 53 53 52 50 46 42 43 42 41 40 39 39 39 42 41 44 47 42 47 49 47 47 46 43 43 44
60 60 59 57 56 55 54 53 53 54 54 52 52 52 49 44 40 41 41 40 39 39 39 39 39 43 39 35 39 50 52 46 47 43 43 42 42 44
59 58 57 55 54 53 54 53 53 53 53 53 50 46 41 40 41 40 39 38 39 39 38 39 39 39 42 42 45 48 48 48 43 43 43 43 44 46
57 56 55 54 54 53 54 53 52 51 48 45 41 39 40 41 40 39 37 39 39 39 38 37 39 42 45 47 45 43 44 46 47 45 43 42 41 41
55 55 55 54 52 53 51 50 47 44 43 42 41 39 39 40 37 36 37 36 38 37 37 37 41 43 48 46 46 46 42 42 45 46 46 45 43 41
54 54 53 51 51 50 48 47 45 44 43 42 41 40 41 38 38 38 36 36 36 35 36 35 37 41 43 44 45 43 43 40 39 39 40 45 45 45
Lifted_Index
0 0 1 1 1 2 2 3 4 4 4 4 4 3 3 2 2 1 1 1 1 1 2 2 2 2 2 2 2 2 2 2 2 2 3 3 4 4
0 0 1 1 1 2 2 3 3 3 3 3 4 3 3 3 2 2 1 1 1 2 2 2 2 2 2 2 2 2 2 2 2 2 2 2 3 3
-0 0 1 1 2 2 2 3 3 3 3 3 3 3 3 3 2 2 2 2 2 2 2 2 2 2 2 2 2 2 2 2 2 2 2 2 2 2
-1 -1 0 1 2 2 2 3 3 3 3 3 3 3 3 3 2 2 1 1 1 2 2 2 2 2 3 3 3 3 3 3 3 3 2 2 2 2
-3 -2 -1 0 1 2 2 2 3 2 3 3 3 3 2 2 2 2 1 1 1 2 2 2 2 3 3 4 4 4 4 4 4 4 3 3 3 3
-4 -4 -3 -2 0 1 2 2 2 2 2 2 2 2 2 2 2 2 2 2 1 2 2 2 2 3 4 5 5 5 5 4 4 4 4 4 4 4
-5 -5 -5 -4 -2 0 1 2 2 2 2 2 2 1 1 1 2 2 2 2 1 1 1 1 1 2 3 4 5 4 4 4 4 5 5 6 6 6
-6 -6 -6 -5 -3 -2 -0 1 1 1 1 1 2 1 1 1 2 2 2 1 1 1 1 1 0 1 1 3 3 4 4 4 4 5 6 6 7 7
-7 -7 -6 -5 -4 -3 -2 -0 1 1 1 1 1 1 1 1 1 1 1 0 0 0 0 0 0 1 1 2 3 4 4 4 4 5 6 6 6 6
-7 -7 -7 -6 -5 -4 -2 -1 0 0 1 1 1 1 1 1 1 0 0 -0 -0 0 1 1 1 2 2 3 3 4 4 4 5 5 5 5 5 5
-8 -8 -7 -6 -5 -4 -2 -1 -0 0 0 1 1 1 1 1 0 0 0 0 1 1 2 2 3 3 3 3 4 5 5 6 6 6 5 5 5 5
-8 -8 -7 -6 -4 -3 -2 -1 -1 -0 0 1 1 1 1 1 2 2 2 2 2 3 3 3 3 4 4 4 4 4 5 5 5 5 4 4 4 4
-8 -7 -6 -5 -3 -2 -2 -1 -1 0 1 1 2 2 2 3 4 4 4 3 3 3 3 3 3 4 4 4 4 4 4 4 4 3 3 4 4 5
-7 -6 -5 -3 -2 -2 -1 -1 -0 1 1 2 2 2 3 4 4 4 4 4 4 4 4 4 4 4 4 5 5 4 4 3 3 3 3 4 4 5
-6 -4 -3 -2 -1 -1 -1 -0 0 1 2 2 2 3 3 4 4 4 4 4 4 5 6 7 6 6 6 6 5 5 5 4 3 3 3 4 5 5
-4 -3 -2 -1 -1 0 1 1 1 2 2 3 3 4 4 4 4 4 4 5 5 6 8 9 8 8 7 7 6 6 5 5 4 4 5 5 6 6
-2 -2 -2 -1 -0 1 2 2 2 2 3 3 4 4 3 4 4 4 5 6 7 8 9 9 9 9 8 7 7 6 6 5 5 5 6 7 7 7
-2 -2 -2 -1 0 2 3 3 3 3 4 4 4 3 3 4 4 5 6 7 8 9 10 10 9 9 8 8 7 6 5 5 5 6 7 8 8 8
-2 -2 -1 -0 1 2 3 4 5 4 4 4 4 4 4 5 6 7 8 9 10 10 10 10 10 9 8 8 7 6 5 5 6 7 8 8 9 9
-2 -1 -1 0 2 3 5 5 5 5 5 5 5 5 6 7 8 9 10 11 11 11 10 10 10 9 9 8 7 6 6 7 7 8 9 9 9 9
-0 -0 1 2 3 5 6 6 6 6 7 7 7 7 8 9 10 11 11 11 11 11 10 10 10 9 8 7 6 6 7 7 8 9 9 10 10 10
2 2 3 3 5 6 6 6 6 7 7 8 8 9 10 11 11 12 12 12 11 11 11 10 10 9 8 7 7 7 7 8 9 9 10 10 10 10
3 3 3 4 5 6 6 6 7 7 7 8 9 10 11 12 12 12 12 12 12 11 11 11 10 9 8 7 7 7 8 9 9 9 10 9 10 11